Regional Weather Roundup
Issued by NWS

Home | Current Version | Previous Version | Graphics & Text | Print | Product List | Glossary On
Versions: 1 2 3 4 5 6 7 8 9 10 11 12 13 14 15 16 17 18 19 20 21 22 23 24 25 26 27 28 29 30 31 32 33 34 35 36 37 38 39 40 41 42 43 44 45 46 47 48 49 50
000
ASUS43 KDMX 260101
RWRIA

WEATHER ROUNDUP FOR IOWA
NATIONAL WEATHER SERVICE DES MOINES IA
700 PM CST SAT FEB 25 2017

NOTE: "FAIR" INDICATES FEW OR NO CLOUDS BELOW 12,000 FEET WITH NO
SIGNIFICANT WEATHER AND/OR OBSTRUCTIONS TO VISIBILITY.

* - THESE STATIONS ARE NOT NWS STATIONS...THUS NOT UNDER NWS
QUALITY CONTROL.  THEY ALSO DO NOT REPORT WEATHER SUCH
AS PRECIPITATION OR FOG.

IAZ001>003-012>014-020>022-031>034-043>046-260200-
   NORTHWEST IOWA

CITY           SKY/WX    TMP DP  RH WIND       PRES   REMARKS
CARROLL *      CLOUDY    23  19  86 S8        29.96S WCI  14
CHEROKEE *     MOCLDY    23  15  71 S7        29.91F WCI  15
DENISON *      PTCLDY    25  16  68 S8        29.92F WCI  16
LE MARS *      CLEAR     25  18  74 S13       29.90F WCI  13
SHELDON *      MOCLDY    23  21  93 S15G22    29.86F WCI  10
SIOUX CITY     CLEAR     27  17  66 S9        29.92F WCI  18
SPENCER        CLEAR     21  13  71 S13       29.90F WCI   9
STORM LAKE *   CLOUDY    21  16  79 S13       29.92S WCI   9
$$

IAZ055>058-069>071-079>083-090>094-260200-
   SOUTHWEST IOWA

CITY           SKY/WX    TMP DP  RH WIND       PRES   REMARKS
ATLANTIC *     CLEAR     28  21  74 S8        29.98F WCI  20
AUDUBON *      CLEAR     27  19  74 S7        29.96F WCI  19
CLARINDA *     PTCLDY    32  21  64 S5        30.03F WCI  27
COUNCIL BLFS * CLOUDY    32  21  64 S9        29.95F WCI  24
CRESTON *      CLOUDY    27  19  74 S9        30.01F WCI  17
HARLAN  *      CLEAR     27  21  80 S7        29.99F WCI  19
LAMONI         CLEAR     28  16  60 S8        30.02S WCI  20
RED OAK *      MOCLDY    30  21  69 S5        29.99F WCI  25
SHENANDOAH *   MOCLDY    30  23  74 SE8       30.00F WCI  23
$$

IAZ047>049-059>061-072>074-084-260200-
   CENTRAL IOWA

CITY           SKY/WX    TMP DP  RH WIND       PRES   REMARKS
AMES           CLOUDY    24  20  84 S5        30.00F WCI  18
ANKENY *       CLOUDY    30  19  64 S3        30.02F
BOONE *        CLOUDY    27  18  69 S5        29.98F WCI  21
CHARITON *     CLOUDY    28  19  69 S6        30.02S WCI  22
DES MOINES     CLOUDY    30  20  66 S5        30.01F WCI  25
GRINNELL*      CLOUDY    26  18  73 S3        30.03S
KNOXVILLE *    CLOUDY    30  19  64 S6        30.01F WCI  24
MARSHALLTOWN   CLEAR     23  17  78 S7        30.01S WCI  15
NEWTON *       CLOUDY    27  21  80 S3        30.01F
PELLA *        PTCLDY    30  20  67 S3        30.05S
PERRY *        CLOUDY    26  22  84 S7        29.99F WCI  19
$$

IAZ004>006-015-016-023>025-035-036-260200-
   NORTH CENTRAL IOWA

CITY           SKY/WX    TMP DP  RH WIND       PRES   REMARKS
ALGONA *       CLOUDY    21  18  86 S13       29.93F WCI   9
CLARION *      CLOUDY    21  16  79 S13       29.96F WCI   9
ESTHERVILLE    CLOUDY    21  16  81 S10       29.89F WCI  10
FORT DODGE *   MOCLDY    23  14  68 S9        29.96F WCI  13
MASON CITY     CLOUDY    20  14  77 S7        29.97S WCI  11
FOREST CITY *  CLOUDY    21  18  86 SW9       29.94F WCI  11
WEBSTER CITY * CLOUDY    21  16  79 S12       29.96S WCI   9
IOWA FALLS *   MOCLDY    23  18  80 S6        30.00S WCI  16
$$

IAZ007>011-017>019-026>030-037>042-050>054-066-260200-
   NORTHEAST IOWA

CITY           SKY/WX    TMP DP  RH WIND       PRES   REMARKS
CEDAR RAPIDS   CLEAR     22  18  85 SW6       30.03R WCI  14
CHARLES CITY * MOCLDY    19  14  79 SW7       29.98S WCI  10
CLINTON *      PTCLDY    25  20  81 W13       30.04R WCI  14
DECORAH *      CLEAR     19  14  79 VRB5      29.96S WCI  13
DUBUQUE        CLEAR     22  15  75 W7        30.00R WCI  13
MONTICELLO *   CLEAR     25  18  74 W8        30.02R WCI  16
OELWEIN *      MOCLDY    23  18  80 SW7       30.00S WCI  15
WATERLOO       CLOUDY    23  16  74 SW7       30.01S WCI  15
$$

IAZ064-065-067-068-078-260200-
   EAST CENTRAL IOWA

CITY           SKY/WX    TMP DP  RH WIND       PRES   REMARKS
DAVENPORT      CLEAR     27  19  72 W8        30.05R WCI  19
IOWA CITY      PTCLDY    26  17  68 SW5       30.07R WCI  20
MUSCATINE *    PTCLDY    28  18  64 W6        30.08R WCI  22
QUAD CITIES    CLOUDY    29  16  58 W8        30.05R WCI  21
$$

IAZ062-063-075>077-085>089-095>099-260200-
   SOUTHEAST IOWA

CITY           SKY/WX    TMP DP  RH WIND       PRES   REMARKS
BURLINGTON     PTCLDY    29  17  61 NW3       30.07R
FAIRFIELD *    MOCLDY    28  16  59 CALM      30.06R
KEOKUK *       CLEAR     28  14  54 SW3       30.08R
CENTERVILLE *    N/A     28  16  59 CALM      30.05F
OTTUMWA        CLOUDY    28  19  69 S5        30.04S WCI  23
WASHINGTON *   CLOUDY    27  18  69 W5        30.07S WCI  21
$$

ABBREVIATIONS USED IN REMARKS
   TC - TEMPERATURES IN CELSIUS
  WCI - WIND CHILL INDEX
   HX - HEAT INDEX
  VSB - VISIBILITY
$$




USA.gov is the U.S. government's official web portal to all federal, state and local government web resources and services.